Regional Weather Roundup
Issued by NWS

Home | Current Version | Previous Version | Graphics & Text | Print | Product List | Glossary On
Versions: 1 2 3 4 5 6 7 8 9 10 11 12 13 14 15 16 17 18 19 20 21 22 23 24 25 26 27 28 29 30 31 32 33 34 35 36 37 38 39 40 41 42 43 44 45 46 47 48 49 50
000
ASUS43 KOAX 041610
RWRNE

WEATHER ROUNDUP FOR NEBRASKA
NATIONAL WEATHER SERVICE OMAHA NE
1100 AM CDT TUE AUG 04 2015

NOTES: SATELLITE DATA IS BEING USED TO AUGMENT CLOUD COVER ABOVE
       12000 FEET.
       "FAIR" INDICATES FEW OR NO CLOUDS BELOW 12,000 FEET WITH NO
       SIGNIFICANT WEATHER AND/OR OBSTRUCTIONS TO VISIBILITY.

  * THESE STATIONS DO NOT REPORT WEATHER SUCH AS RAIN...SNOW OR FOG.

NEZ001>004-019>022-054>056-041700-
NEBRASKA PANHANDLE

CITY           SKY/WX    TMP DP  RH WIND       PRES   REMARKS
SCOTTSBLUFF    PTSUNNY   70  56  61 SE10      30.01R
ALLIANCE       PTSUNNY   67  62  84 SE20      30.02F
CHADRON        MOSUNNY   77  61  57 SE20G30   29.95F
KIMBALL        PTSUNNY   76  50  40 N9        30.04S
SIDNEY         MOSUNNY   66  58  75 E12       30.03F
$$

NEZ057>060-069>072-079>082-041700-
SOUTHWEST NEBRASKA

CITY           SKY/WX    TMP DP  RH WIND       PRES   REMARKS
NORTH PLATTE   CLOUDY    67  64  90 E17G24    29.97F
IMPERIAL       PTSUNNY   75  65  70 E12       29.97F
LEXINGTON      CLOUDY    71  67  88 E13G22    29.99F
MCCOOK         TSTM      70  68  93 NE12      29.97R FOG
OGALLALA       CLOUDY    70  65  85 NE8       29.99F
$$

NEZ005>010-023>029-035>040-094-041700-
NORTH CENTRAL NEBRASKA

CITY           SKY/WX    TMP DP  RH WIND       PRES   REMARKS
AINSWORTH      CLOUDY    72  62  71 S20       29.95F
BROKEN BOW     PTSUNNY   75  59  57 E15G24    30.00F
O`NEILL        CLOUDY    68  65  90 SE15      29.97F
ORD            MOSUNNY   71  64  78 SE12      29.98F
THEDFORD       MOSUNNY   77  59  53 SE18G26   29.99F
$$

NEZ041-046>049-061>064-073>077-083>087-041700-
SOUTH CENTRAL NEBRASKA

CITY           SKY/WX    TMP DP  RH WIND       PRES   REMARKS
GRAND ISLAND   MOSUNNY   74  65  73 E12       30.00F
AURORA         MOSUNNY   74  67  79 E12       29.99F
HASTINGS       CLOUDY    72  63  73 E16G25    29.99F
HEBRON         CLOUDY    74  65  71 E13       30.00F
HOLDREGE       CLOUDY    68  66  96 E18G26    29.98F
KEARNEY *      CLOUDY    75  64  69 E18       29.99F
YORK             N/A     73  68  83 E10       30.00F
$$

NEZ011>018-030>034-042>045-041700-
NORTHEAST NEBRASKA

CITY           SKY/WX    TMP DP  RH WIND       PRES   REMARKS
NORFOLK        CLOUDY    68  64  87 NE6       30.01S
ALBION         PTSUNNY   65  63  94 S7        30.01F
BLAIR          LGT RAIN  67  63  86 NE6       30.03F
COLUMBUS *     CLOUDY    66  61  82 SE3       30.00F
FREMONT        CLOUDY    68  65  89 NE9       30.02F
TEKAMAH        CLOUDY    69  64  84 S6        30.05R
WAYNE          CLOUDY    69  65  86 SE10      30.02F
$$

NEZ050>053-065>068-078-088>093-041700-
SOUTHEAST NEBRASKA

CITY           SKY/WX    TMP DP  RH WIND       PRES   REMARKS
LINCOLN        PTSUNNY   73  69  87 E10       30.01F
OMAHA EPPLEY   LGT RAIN  68  66  93 SE14      30.03F
BEATRICE       PTSUNNY   73  65  76 E15       30.01F
FALLS CITY     CLOUDY    74  67  78 E10       30.02R
NEBRASKA CITY  LGT RAIN  67  67  99 E8        30.02F
PLATTSMOUTH    LGT RAIN  65  64  97 E10G16    30.01F
$$

NEZ044-045-051>053-067-041700-
OMAHA AREA

CITY           SKY/WX    TMP DP  RH WIND       PRES   REMARKS
OMAHA EPPLEY   LGT RAIN  68  66  93 SE14      30.03F
BLAIR          LGT RAIN  67  63  86 NE6       30.03F
FREMONT        CLOUDY    68  65  89 NE9       30.02F
MILLARD        LGT RAIN  68  64  89 SE6       30.00F
OFFUTT AFB     LGT RAIN  67  65  94 E10       30.00F
PLATTSMOUTH    LGT RAIN  65  64  97 E10G16    30.01F
WAHOO          LGT RAIN  68  65  91 S9        30.02R
$$



USA.gov is the U.S. government's official web portal to all federal, state and local government web resources and services.